Weather in Staroye Ibraykino

Russia / Republic of Tatarstan     54°51′37″N   51°01′47″E
temp.,
°C
wind,
m/s
gust,
m/s
humid.,
%
clouds,
%
prec.,
mm/h
press.,
hPa
HPBL,
m
2 march, tue
tue200:00−18ssw4710054 0.0 1017132
03:00−14ssw6119777 0.1 1014264
06:00−11ssw81494100 0.3 1009456
09:00−8sw81494100 1.4 1005586
12:00−2sw91495100 0.4 1002749
15:000sw81298100 1.8 1000773
18:000w61098100 1.5 999564
21:00−2w499495 2.0 1000234
3 march, wed
wed300:00−6w469638 0.0 999105
03:00−9w349733 0.0 100138
06:00−9wsw339782 0.1 100045
09:00−6wsw359689 0.2 1002220
12:00−3wnw579299 0.3 1001526
15:00−4wnw689198 0.3 1002742
18:00−7w4109596 0.1 1003284
21:00−9wnw489597 0.3 1005172
4 march, thu
thu400:00−10wnw489595 0.1 1005184
03:00−13sw479778 0.1 1005122
06:00−10sw5119597 0.2 1004362
09:00−6wsw6109498 0.4 1003597
12:00−3sw71091100 0.3 1002793
15:00−3sw81395100 0.8 1000855
18:00−2sw81496100 1.3 997754
21:000wsw71396100 2.3 996779
5 march, fri
fri500:00−1wsw91596100 1.5 996960
03:00−1wsw81497100 3.0 996895
06:00−1wnw61097100 2.1 998546
09:00−4wnw6990100 2.7 1001642
12:00−6wnw589174 0.0 1004461
15:00−7wnw588954 0.0 1008467
18:00−12w44922 0.0 101170
21:00−15w33921 0.0 101425
6 march, sat
sat600:00−16w229417 0.0 101520
03:00−15s129658 0.0 101520
06:00−13se2395100 0.0 101353
09:00−10e3593100 0.1 1010208
12:00−8ne4695100 1.4 1007329
15:00−8nne5894100 2.6 1006438
18:00−10nne489498 0.4 1006284
21:00−13nnw349695 0.4 100854